,

(GMT )
Munich

Weather History for EDDM - September, 2018

Change the Weather History Date:

Friday, September 14, 2018

  Actual Average Record
Temperature  
Mean Temperature 63 °F -  
Max Temperature 69 °F 64 °F 80 °F (1999)
Min Temperature 57 °F 45 °F 37 °F (2002)
Degree Days  
Heating Degree Days 2    
Growing Degree Days 13 (Base 50)    
Moisture  
Dew Point 57 °F    
Average Humidity 84    
Maximum Humidity 100    
Minimum Humidity 56    
Precipitation  
Precipitation 0.00 in - - ()
Sea Level Pressure  
Sea Level Pressure 30.12 in    
Wind  
Wind Speed 4 mph ()    
Max Wind Speed 7 mph    
Max Gust Speed -    
Visibility 6.0 miles    
Events Rain    
Averages and records for this station are not official NWS values.
T = Trace of Precipitation, MM = Missing Value Source: Averaged Metar Reports

Daily Weather History Graph

Daily Weather History Graph

Search for Another Location

Airport or City:

Astronomy

Sep. 14, 2018 Rise Set
Actual Time 6:48 AM CEST 7:28 PM CEST
Civil Twilight 6:17 AM CEST 7:59 PM CEST
Nautical Twilight 5:39 AM CEST 8:36 PM CEST
Astronomical Twilight 5:00 AM CEST 9:15 PM CEST
Moon 12:07 PM CEST (9/14) 10:13 PM CEST (9/14)
Length of Visible Light 13h 42m
Length of Day
12h 39m
Waxing Crescent, 25% of the Moon is Illuminated
Sep 14
Waxing Crescent
Sep 17
First Quarter
Sep 25
Full
Oct 2
Last Quarter
Oct 9
New

Hourly Weather History & Observations

Time (CEST) Temp. Dew Point Humidity Pressure Visibility Wind Dir Wind Speed Gust Speed Precip Events Conditions
12:20 AM 60.8 °F 59.0 °F 94% 30.09 in 6.2 mi West 5.8 mph - N/A   Mostly Cloudy
12:50 AM 62.6 °F 59.0 °F 88% 30.09 in 6.2 mi West 6.9 mph - N/A   Mostly Cloudy
1:20 AM 62.6 °F 59.0 °F 88% 30.09 in 6.2 mi West 3.5 mph - N/A   Mostly Cloudy
1:50 AM 64.4 °F 59.0 °F 83% 30.09 in 6.2 mi West 5.8 mph - N/A   Mostly Cloudy
2:20 AM 62.6 °F 59.0 °F 88% 30.09 in 6.2 mi NW 5.8 mph - N/A Rain Light Rain
2:50 AM 62.6 °F 59.0 °F 88% 30.09 in 6.2 mi NNW 4.6 mph - N/A Rain Light Rain
3:20 AM 60.8 °F 59.0 °F 94% 30.09 in 6.2 mi North 5.8 mph - N/A Rain Light Rain
3:50 AM 60.8 °F 59.0 °F 94% 30.09 in 6.2 mi NNW 5.8 mph - N/A Rain Light Rain
4:20 AM 59.0 °F 57.2 °F 94% 30.09 in 6.2 mi NNW 5.8 mph - N/A Rain Light Rain
4:50 AM 59.0 °F 57.2 °F 94% 30.09 in 5.0 mi North 4.6 mph - N/A Rain Rain
5:20 AM 59.0 °F 57.2 °F 94% 30.09 in 5.0 mi NNW 4.6 mph - N/A Rain Rain
5:50 AM 59.0 °F 57.2 °F 94% 30.09 in 6.2 mi Variable 1.2 mph - N/A Rain Rain
6:20 AM 59.0 °F 57.2 °F 94% 30.09 in 6.2 mi WNW 3.5 mph - N/A Rain Rain
6:50 AM 59.0 °F 57.2 °F 94% 30.09 in 4.3 mi WNW 2.3 mph - N/A Rain Rain
7:20 AM 59.0 °F 57.2 °F 94% 30.12 in 5.0 mi Variable 2.3 mph - N/A Rain Rain
7:50 AM 59.0 °F 55.4 °F 88% 30.12 in 5.0 mi West 2.3 mph - N/A Rain Rain
8:20 AM 59.0 °F 57.2 °F 94% 30.12 in 6.2 mi West 2.3 mph - N/A Rain Rain
8:50 AM 59.0 °F 57.2 °F 94% 30.12 in 6.2 mi West 2.3 mph - N/A Rain Light Rain
9:20 AM 59.0 °F 57.2 °F 94% 30.15 in 6.2 mi West 3.5 mph - N/A Rain Light Rain
9:50 AM 59.0 °F 57.2 °F 94% 30.15 in 6.2 mi West 3.5 mph - N/A   Overcast
10:20 AM 59.0 °F 57.2 °F 94% 30.15 in 6.2 mi West 3.5 mph - N/A   Mostly Cloudy
10:50 AM 60.8 °F 57.2 °F 88% 30.15 in 6.2 mi WSW 3.5 mph - N/A   Mostly Cloudy
11:20 AM 62.6 °F 57.2 °F 82% 30.15 in 6.2 mi Variable 3.5 mph - N/A   Mostly Cloudy
11:50 AM 62.6 °F 57.2 °F 82% 30.15 in 6.2 mi West 3.5 mph - N/A   Mostly Cloudy
12:20 PM 64.4 °F 55.4 °F 73% 30.15 in 6.2 mi WNW 4.6 mph - N/A   Mostly Cloudy
12:50 PM 64.4 °F 55.4 °F 73% 30.15 in 6.2 mi Variable 3.5 mph - N/A   Mostly Cloudy
1:20 PM 66.2 °F 55.4 °F 68% 30.15 in 6.2 mi Variable 3.5 mph - N/A   Mostly Cloudy
1:50 PM 66.2 °F 55.4 °F 68% 30.15 in 6.2 mi Variable 4.6 mph - N/A   Scattered Clouds
2:20 PM 66.2 °F 55.4 °F 68% 30.15 in 6.2 mi Variable 4.6 mph - N/A   Scattered Clouds
2:50 PM 68.0 °F 55.4 °F 64% 30.12 in 6.2 mi Variable 3.5 mph - N/A   Partly Cloudy
3:20 PM 69.8 °F 53.6 °F 56% 30.12 in 6.2 mi Variable 2.3 mph - N/A   Scattered Clouds
3:50 PM 69.8 °F 55.4 °F 60% 30.12 in 6.2 mi NNW 5.8 mph - N/A   Scattered Clouds
4:20 PM 69.8 °F 55.4 °F 60% 30.12 in 6.2 mi North 3.5 mph - N/A   Partly Cloudy
4:50 PM 69.8 °F 53.6 °F 56% 30.12 in 6.2 mi Variable 1.2 mph - N/A   Scattered Clouds
5:20 PM 68.0 °F 55.4 °F 64% 30.12 in 6.2 mi West 2.3 mph - N/A   Scattered Clouds
5:50 PM 68.0 °F 53.6 °F 60% 30.12 in 6.2 mi NNE 4.6 mph - N/A   Scattered Clouds
6:20 PM 66.2 °F 57.2 °F 73% 30.12 in 6.2 mi NE 4.6 mph - N/A   Scattered Clouds
6:50 PM 66.2 °F 57.2 °F 73% 30.12 in 6.2 mi NE 4.6 mph - N/A   Scattered Clouds
7:20 PM 64.4 °F 57.2 °F 77% 30.12 in 6.2 mi ENE 2.3 mph - N/A   Scattered Clouds
7:50 PM 62.6 °F 57.2 °F 82% 30.12 in 6.2 mi NE 3.5 mph - N/A   Scattered Clouds
8:20 PM 59.0 °F 57.2 °F 94% 30.12 in 6.2 mi ENE 2.3 mph - N/A   Scattered Clouds
8:50 PM 59.0 °F 57.2 °F 94% 30.12 in - ENE 2.3 mph - N/A   Clear
9:20 PM 59.0 °F 57.2 °F 94% 30.12 in - East 3.5 mph - N/A   Clear
9:50 PM 59.0 °F 57.2 °F 94% 30.15 in - Variable 1.2 mph - N/A   Clear
10:20 PM 57.2 °F 57.2 °F 100% 30.15 in - Variable 1.2 mph - N/A   Clear
10:50 PM 57.2 °F 57.2 °F 100% 30.15 in - Variable 2.3 mph - N/A   Clear
11:20 PM 57.2 °F 57.2 °F 100% 30.15 in - Variable 2.3 mph - N/A   Clear
11:50 PM 57.2 °F 57.2 °F 100% 30.15 in - SE 3.5 mph - N/A   Clear